Weather observations for the past three days for
Crockett, Houston County Airport
Imperial (Metric)
Date Time (cdt) Wind (mph) Vis. (mi.) Weather Sky Cond. Temperature (ºF) Relative Humidity Wind Chill (°F) Heat Index (°F) Pressure Precipitation (in)
Air Dwpt 6 hour altimeter (in) sea level (mb) 1 hr 3 hr 6 hr
Max. Min.
15 05:55 Calm 4.00 Fog/Mist CLR 75.2 75.2 100% 73 30.06 0.0
15 05:35 Calm 6.00 Fog/Mist CLR 75.2 75.2 100% 73 30.06 0.0
15 05:15 Calm 6.00 Fog/Mist CLR 75.2 75.2 100% 73 30.06 0.0
15 04:55 Calm 7.00 Fair CLR 75.2 75.2 100% 73 30.06 0.0
15 04:35 Calm 7.00 Fair CLR 75.2 75.2 100% 73 30.06 0.0
15 04:15 Calm 6.00 Fog/Mist CLR 75.2 75.2 100% 73 30.05 0.0
15 03:55 Calm 8.00 Fair CLR 77 77 100% 78 30.05 0.0
15 03:35 Calm 8.00 Fair CLR 77 77 100% 78 30.05 0.0
15 03:15 Calm 7.00 Fair CLR 77 77 100% 78 30.05 0.0
15 02:55 Calm 8.00 Fair CLR 77 77 100% 78 30.05 0.0
15 02:35 Calm 8.00 Fair CLR 77 77 100% 78 30.06 0.0
15 02:15 Calm 6.00 Fog/Mist CLR 77 77 100% 78 30.06 0.0
15 01:55 Calm 5.00 Fog/Mist CLR 77 77 100% 78 30.07 0.0
15 01:15 Calm 8.00 Fair CLR 78.8 78.8 100% 83 30.06 0.0
15 00:55 Calm 8.00 Fair CLR 78.8 78.8 100% 83 30.06 0.0
15 00:35 Calm 8.00 Fair CLR 78.8 78.8 100% 83 30.06 0.0
15 00:15 Calm 9.00 Fair CLR 78.8 78.8 100% 83 30.06 0.0
14 23:55 Calm 8.00 Fair CLR 78.8 78.8 100% 83 30.06 0.0
14 23:35 Calm 8.00 Fair CLR 78.8 78.8 100% 83 30.06 0.0
14 23:15 Calm 9.00 Fair CLR 78.8 78.8 100% 83 30.06 0.0
14 22:55 Calm 8.00 Fair CLR 78.8 78.8 100% 83 30.06 0.0
14 22:35 Calm 10.00 Fair CLR 80.6 80.6 100% 89 30.06 0.0
14 22:15 Calm 10.00 Fair CLR 80.6 80.6 100% 89 30.06 0.0
14 21:55 Calm 10.00 Fair CLR 80.6 80.6 100% 89 30.05 0.0
14 21:35 Calm 9.00 Fair CLR 80.6 80.6 100% 89 30.05 0.0
14 21:15 SE 5 10.00 Fair CLR 82.4 80.6 94% 94 30.06 0.0
14 20:55 Calm 10.00 Fair CLR 82.4 80.6 94% 94 30.06 0.0
14 20:35 Calm 10.00 Fair CLR 84.2 80.6 89% 98 30.06 0.0
14 20:15 Calm 10.00 Fair CLR 84.2 80.6 89% 98 30.05 0.0
14 19:55 Calm 10.00 Fair CLR 86 82.4 89% 105 30.05 0.0
14 19:35 Calm 10.00 Fair CLR 87.8 82.4 84% 108 30.06 0.0
14 19:15 Calm 10.00 Fair CLR 87.8 80.6 79% 105 30.06 0.0
14 18:55 Calm 10.00 Fair CLR 87.8 80.6 79% 105 30.06 0.0
14 18:35 Calm 10.00 Fair CLR 87.8 80.6 79% 105 30.07 0.0
14 18:15 Calm 10.00 Fair CLR 87.8 78.8 75% 102 30.06 0.0
14 17:55 Calm 10.00 Fair CLR 89.6 78.8 71% 105 30.07 0.0
14 17:35 Calm 10.00 A Few Clouds FEW034 89.6 78.8 71% 105 30.07 0.0
14 17:15 Calm 10.00 Partly Cloudy SCT035 SCT050 89.6 80.6 75% 108 30.07 0.0
14 16:55 S 10 10.00 A Few Clouds FEW029 FEW036 89.6 80.6 75% 108 30.08 0.0
14 16:35 Vrbl 5 10.00 Fair CLR 89.6 80.6 75% 108 30.09 0.0
14 16:15 S 9 10.00 Fair CLR 89.6 80.6 75% 108 30.09 0.0
14 15:55 S 8 9.00 Fair CLR 89.6 78.8 71% 105 30.09 0.0
14 15:35 S 8 9.00 A Few Clouds FEW031 FEW039 89.6 80.6 75% 108 30.1 0.0
14 15:15 Calm 6.00 A Few Clouds with Haze FEW030 89.6 82.4 79% 111 30.11 0.0
14 14:55 Calm 7.00 Fair CLR 89.6 82.4 79% 111 30.12 0.0
14 14:35 Calm 9.00 A Few Clouds FEW027 87.8 80.6 79% 105 30.12 0.0
14 14:15 Vrbl 3 8.00 A Few Clouds FEW026 89.6 80.6 75% 108 30.12 0.0
14 13:55 Vrbl 5 9.00 Partly Cloudy FEW024 SCT030 87.8 82.4 84% 108 30.13 0.0
14 13:35 Calm 8.00 Partly Cloudy SCT024 SCT031 86 82.4 89% 105 30.14 0.0
14 13:15 Calm 7.00 Partly Cloudy SCT024 SCT029 86 80.6 84% 102 30.15 0.0
14 12:55 Calm 8.00 A Few Clouds FEW021 86 80.6 84% 102 30.15 0.0
14 12:35 Vrbl 5 10.00 Fair CLR 86 80.6 84% 102 30.15 0.0
14 12:15 Calm 10.00 A Few Clouds FEW023 FEW029 86 80.6 84% 102 30.16 0.0
14 11:55 SW 8 10.00 Partly Cloudy SCT022 SCT029 86 80.6 84% 102 30.16 0.0
14 11:35 Calm 10.00 Partly Cloudy SCT018 SCT026 86 82.4 89% 105 30.17 0.0
14 11:15 Calm 10.00 A Few Clouds FEW013 84.2 82.4 94% 101 30.17 0.0
14 10:55 Calm 10.00 A Few Clouds FEW011 82.4 80.6 94% 94 30.17 0.0
14 10:35 Calm 10.00 Fair CLR 80.6 80.6 100% 89 30.18 0.0
14 10:15 Calm 10.00 Fair CLR 80.6 78.8 94% 88 30.18 0.0
14 09:55 Calm 10.00 A Few Clouds FEW009 78.8 78.8 100% 83 30.17 0.0
14 09:35 Calm 10.00 A Few Clouds FEW009 78.8 78.8 100% 83 30.17 0.0
14 09:15 Calm 10.00 Fair CLR 78.8 78.8 100% 83 30.17 0.0
14 08:55 Calm 10.00 Fair CLR 78.8 78.8 100% 83 30.18 0.0
14 08:35 Calm 10.00 Fair CLR 77 77 100% 78 30.18 0.0
14 08:15 Calm 8.00 Fair CLR 77 77 100% 78 30.18 0.0
14 07:55 Calm 7.00 Fair CLR 75.2 75.2 100% 73 30.17 0.0
14 07:35 Calm 6.00 Fog/Mist CLR 73.4 73.4 100% 30.17 0.0
14 07:15 Calm 5.00 Fog/Mist CLR 73.4 73.4 100% 30.16 0.0
14 06:55 Calm 5.00 Fog/Mist CLR 73.4 73.4 100% 30.15 0.0
14 06:35 Calm 4.00 Fog/Mist CLR 71.6 71.6 100% 30.15 0.0
14 06:15 Calm 6.00 Fog/Mist FEW230 71.6 71.6 100% 30.15 0.0
14 05:55 Calm 7.00 Mostly Cloudy SCT230 BKN280 71.6 71.6 100% 30.14 0.0
14 05:35 Calm 5.00 Fog/Mist FEW230 FEW280 71.6 71.6 100% 30.14 0.0
14 05:15 Calm 6.00 Fog/Mist FEW230 71.6 71.6 100% 30.14 0.0
14 04:55 Calm 5.00 Fog/Mist FEW230 71.6 71.6 100% 30.13 0.0
14 04:35 Calm 5.00 Fog/Mist CLR 73.4 73.4 100% 30.13 0.0
14 04:15 Calm 4.00 Fog/Mist CLR 73.4 73.4 100% 30.13 0.0
14 03:55 Calm 4.00 Fog/Mist CLR 73.4 73.4 100% 30.13 0.0
14 03:35 Calm 5.00 Fog/Mist FEW240 73.4 73.4 100% 30.12 0.0
14 03:15 Calm 3.00 Fog/Mist SCT240 71.6 71.6 100% 30.13 0.0
14 02:55 Calm 5.00 Fog/Mist OVC240 73.4 73.4 100% 30.13 0.0
14 02:35 Calm 5.00 Fog/Mist OVC240 73.4 73.4 100% 30.14 0.0
14 02:15 Calm 7.00 Overcast OVC240 73.4 73.4 100% 30.14 0.0
14 01:55 Calm 7.00 Mostly Cloudy BKN240 73.4 73.4 100% 30.15 0.0
14 01:35 Calm 8.00 Partly Cloudy SCT250 73.4 73.4 100% 30.15 0.0
14 01:15 Calm 9.00 Mostly Cloudy BKN250 73.4 73.4 100% 30.15 0.0
14 00:55 Calm 9.00 Mostly Cloudy BKN250 73.4 73.4 100% 30.15 0.0
14 00:35 Calm 6.00 Fog/Mist FEW240 73.4 73.4 100% 30.15 0.0
14 00:15 Calm 9.00 Partly Cloudy FEW240 SCT260 73.4 73.4 100% 30.15 0.0
13 23:55 Calm 9.00 Overcast FEW230 OVC250 73.4 73.4 100% 30.15 0.0
13 23:35 Calm 9.00 Mostly Cloudy SCT220 BKN240 73.4 73.4 100% 30.15 0.0
13 22:55 Calm 9.00 A Few Clouds FEW230 73.4 73.4 100% 30.15 0.0
13 22:35 Calm 10.00 A Few Clouds FEW230 75.2 75.2 100% 73 30.15 0.0
13 21:55 Calm 9.00 Partly Cloudy SCT230 SCT260 73.4 73.4 100% 30.15 0.0
13 21:15 Calm 10.00 A Few Clouds FEW260 75.2 75.2 100% 73 30.15 0.0
13 20:55 Calm 9.00 A Few Clouds FEW190 75.2 75.2 100% 73 30.15 0.0
13 20:35 Calm 10.00 Fair CLR 75.2 75.2 100% 73 30.16 0.0
13 20:15 Calm 6.00 Light Rain Fog/Mist FEW041 FEW048 75.2 75.2 100% 73 30.15 0.0
13 19:55 Calm 3.00 Light Rain Fog/Mist FEW041 75.2 75.2 100% 73 30.15 0.0
13 19:35 Calm 6.00 Light Rain Fog/Mist FEW050 75.2 75.2 100% 73 30.15 0.0
13 19:15 Calm 3.00 Light Rain Fog/Mist SCT050 SCT060 75.2 75.2 100% 73 30.16 0.0
13 18:55 Calm 4.00 Light Rain Fog/Mist FEW038 FEW048 SCT060 75.2 75.2 100% 73 30.17 0.0
13 18:35 S 5 5.00 Light Rain Fog/Mist CLR 75.2 75.2 100% 73 30.17 0.0
13 18:15 SW 8 6.00 Thunderstorm Light Rain Fog/Mist CLR 75.2 75.2 100% 73 30.19 0.0
13 17:55 Calm 9.00 Thunderstorm Light Rain FEW140 77 77 100% 78 30.18 0.0
13 17:35 Calm 10.00 Thunderstorm in Vicinity Rain CLR 77 77 100% 78 30.17 0.0
13 17:15 Calm 10.00 Thunderstorm in Vicinity FEW120 78.8 77 94% 83 30.16 0.0
13 16:55 SE 12 10.00 Thunderstorm in Vicinity CLR 82.4 77 84% 91 30.17 0.0
13 16:35 E 6 10.00 Thunderstorm in Vicinity CLR 84.2 78.8 84% 96 30.16 0.0
13 16:15 E 8 G 14 10.00 Fair CLR 84.2 78.8 84% 96 30.16 0.0
13 15:55 SE 9 6.00 Thunderstorm in Vicinity Rain Fog/Mist FEW029 82.4 78.8 89% 92 30.16 0.0
13 15:35 Calm 1.00 Light Rain Fog/Mist SCT029 SCT034 SCT042 78.8 78.8 100% 83 30.16 0.0
13 15:15 SE 10 G 16 10.00 Partly Cloudy FEW031 SCT039 84.2 78.8 84% 96 30.16 0.0
13 14:55 Calm 10.00 A Few Clouds FEW030 87.8 78.8 75% 102 30.16 0.0
13 14:35 Calm 10.00 A Few Clouds FEW028 FEW033 86 78.8 79% 99 30.17 0.0
13 14:15 Calm 10.00 Thunderstorm in Vicinity CLR 86 80.6 84% 102 30.17 0.0
13 13:55 Calm 10.00 Fair CLR 84.2 80.6 89% 98 30.17 0.0
13 13:35 Calm 9.00 Thunderstorm in Vicinity CLR 84.2 78.8 84% 96 30.19 0.0
13 13:15 Calm 10.00 Thunderstorm in Vicinity SCT018 SCT032 SCT045 82.4 78.8 89% 92 30.19 0.0
13 12:55 W 9 10.00 Thunderstorm in Vicinity FEW019 SCT026 SCT034 84.2 80.6 89% 98 30.19 0.0
13 12:35 Calm 10.00 Partly Cloudy SCT020 SCT026 84.2 80.6 89% 98 30.2 0.0
13 12:15 Calm 10.00 Partly Cloudy FEW018 SCT027 84.2 80.6 89% 98 30.19 0.0
13 11:55 Calm 10.00 Partly Cloudy FEW020 SCT027 84.2 80.6 89% 98 30.2 0.0
13 11:35 Calm 10.00 A Few Clouds FEW020 FEW025 84.2 80.6 89% 98 30.2 0.0
13 11:15 Calm 10.00 Fair CLR 84.2 80.6 89% 98 30.2 0.0
13 10:55 Calm 10.00 Fair CLR 82.4 78.8 89% 92 30.2 0.0
13 10:35 Calm 10.00 Fair CLR 82.4 78.8 89% 92 30.2 0.0
13 10:15 Calm 10.00 Fair CLR 80.6 78.8 94% 88 30.19 0.0
13 09:55 Calm 10.00 Fair CLR 80.6 78.8 94% 88 30.19 0.0
13 09:35 Calm 10.00 Fair CLR 80.6 78.8 94% 88 30.2 0.0
13 09:15 Calm 10.00 Fair CLR 80.6 78.8 94% 88 30.2 0.0
13 08:55 Calm 10.00 Fair CLR 78.8 78.8 100% 83 30.2 0.0
13 08:35 Calm 10.00 Fair CLR 78.8 77 94% 83 30.19 0.0
13 08:15 Calm 10.00 Fair CLR 77 77 100% 78 30.19 0.0
13 07:35 Calm 7.00 Fair CLR 73.4 73.4 100% 30.18 0.0
13 07:15 Calm 7.00 Fair CLR 73.4 73.4 100% 30.17 0.0
13 06:55 Calm 7.00 Fair CLR 71.6 71.6 100% 30.16 0.0
13 06:35 Calm 7.00 Partly Cloudy SCT190 71.6 71.6 100% 30.16 0.0
13 06:15 Calm 7.00 Overcast OVC190 71.6 71.6 100% 30.15 0.0
13 05:55 Calm 8.00 Mostly Cloudy BKN190 71.6 71.6 100% 30.15 0.0
13 05:35 Calm 8.00 Partly Cloudy SCT190 71.6 71.6 100% 30.14 0.0
13 05:15 Calm 8.00 Fair CLR 71.6 71.6 100% 30.14 0.0
13 04:55 Calm 9.00 Fair CLR 71.6 71.6 100% 30.13 0.0
13 04:35 Calm 8.00 Fair CLR 71.6 71.6 100% 30.12 0.0
13 04:15 Calm 8.00 Fair CLR 71.6 71.6 100% 30.12 0.0
13 03:55 Calm 7.00 Fair CLR 71.6 71.6 100% 30.12 0.0
13 03:35 Calm 9.00 Fair CLR 71.6 71.6 100% 30.11 0.0
13 03:15 Calm 9.00 A Few Clouds FEW290 71.6 71.6 100% 30.12 0.0
13 02:55 Calm 9.00 Fair CLR 71.6 71.6 100% 30.12 0.0
13 02:35 Calm 10.00 Fair CLR 71.6 71.6 100% 30.13 0.0
13 02:15 Calm 10.00 Fair CLR 71.6 71.6 100% 30.13 0.0
13 01:55 Calm 10.00 Fair CLR 71.6 71.6 100% 30.13 0.0
13 01:35 Calm 10.00 Fair CLR 71.6 71.6 100% 30.14 0.0
13 01:15 Calm 10.00 Fair CLR 73.4 73.4 100% 30.13 0.0
13 00:55 Calm 10.00 Fair CLR 73.4 73.4 100% 30.13 0.0
13 00:35 Calm 10.00 A Few Clouds FEW180 73.4 73.4 100% 30.14 0.0
13 00:15 Calm 8.00 Mostly Cloudy BKN180 71.6 71.6 100% 30.14 0.0
12 23:55 Calm 10.00 Partly Cloudy SCT180 73.4 73.4 100% 30.14 0.0
12 23:35 Calm 8.00 Partly Cloudy SCT180 73.4 73.4 100% 30.13 0.0
12 23:15 Calm 10.00 Fair CLR 73.4 73.4 100% 30.12 0.0
12 22:55 Calm 10.00 Fair CLR 73.4 73.4 100% 30.12 0.0
12 22:35 Calm 10.00 A Few Clouds FEW230 75.2 75.2 100% 73 30.1 0.0
12 22:15 Calm 9.00 Mostly Cloudy BKN230 75.2 75.2 100% 73 30.1 0.0
12 21:55 Calm 10.00 Fair CLR 77 75.2 94% 78 30.09 0.0
12 21:35 Calm 10.00 A Few Clouds FEW240 77 77 100% 78 30.09 0.0
12 21:15 Calm 10.00 A Few Clouds FEW240 77 77 100% 78 30.09 0.0
12 20:55 Calm 10.00 Fair CLR 77 75.2 94% 78 30.09 0.0
12 20:35 Calm 10.00 Fair CLR 78.8 75.2 89% 82 30.09 0.0
12 20:15 Calm 10.00 Fair CLR 80.6 77 89% 87 30.08 0.0
12 19:55 S 6 10.00 A Few Clouds FEW021 82.4 80.6 94% 94 30.09 0.0
12 19:15 Calm 10.00 A Few Clouds FEW018 82.4 80.6 94% 94 30.09 0.0
12 18:55 Calm 10.00 Fair CLR 84.2 80.6 89% 98 30.08 0.0
12 18:35 Calm 10.00 Fair CLR 84.2 80.6 89% 98 30.08 0.0
12 18:15 Calm 10.00 Fair CLR 84.2 80.6 89% 98 30.07 0.0
12 17:55 Calm 10.00 Fair CLR 84.2 80.6 89% 98 30.07 0.0
12 17:35 Calm 10.00 Fair CLR 84.2 80.6 89% 98 30.08 0.0
12 17:15 Calm 10.00 A Few Clouds FEW017 84.2 80.6 89% 98 30.08 0.0
12 16:55 Calm 10.00 Fair CLR 84.2 80.6 89% 98 30.08 0.0
12 16:35 Calm 10.00 Fair CLR 84.2 80.6 89% 98 30.08 0.0
12 16:15 Calm 10.00 Fair CLR 84.2 80.6 89% 98 30.09 0.0
12 15:55 S 5 10.00 Fair CLR 84.2 80.6 89% 98 30.1 0.0
12 15:35 Calm 10.00 Fair CLR 84.2 80.6 89% 98 30.1 0.0
12 15:15 Calm 10.00 A Few Clouds FEW019 FEW024 84.2 80.6 89% 98 30.1 0.0
12 14:55 Calm 10.00 Partly Cloudy FEW019 SCT024 84.2 80.6 89% 98 30.11 0.0
12 14:35 Calm 10.00 Fair CLR 84.2 78.8 84% 96 30.11 0.0
12 14:15 Calm 10.00 Fair CLR 84.2 78.8 84% 96 30.11 0.0
12 13:55 SE 6 10.00 Fair CLR 84.2 78.8 84% 96 30.1 0.0
12 13:35 S 7 10.00 Fair CLR 84.2 80.6 89% 98 30.1 0.0
12 13:15 Calm 10.00 A Few Clouds FEW020 FEW030 84.2 78.8 84% 96 30.11 0.0
12 12:55 Calm 10.00 Fair CLR 84.2 78.8 84% 96 30.11 0.0
12 12:35 Calm 10.00 Fair CLR 84.2 78.8 84% 96 30.12 0.0
12 12:15 Calm 10.00 Fair CLR 84.2 78.8 84% 96 30.12 0.0
12 11:55 Calm 10.00 Fair CLR 84.2 78.8 84% 96 30.12 0.0
12 11:35 Calm 10.00 Fair CLR 84.2 78.8 84% 96 30.11 0.0
12 11:15 Calm 10.00 Fair CLR 84.2 78.8 84% 96 30.11 0.0
12 10:55 Calm 10.00 Fair CLR 84.2 78.8 84% 96 30.11 0.0
12 10:35 Calm 10.00 Fair CLR 84.2 78.8 84% 96 30.11 0.0
12 10:15 Calm 10.00 Fair CLR 84.2 78.8 84% 96 30.11 0.0
12 09:55 Calm 10.00 Fair CLR 82.4 77 84% 91 30.11 0.0
12 09:35 Calm 10.00 Thunderstorm in Vicinity CLR 80.6 78.8 94% 88 30.11 0.0
12 09:15 Calm 10.00 Fair CLR 80.6 78.8 94% 88 30.11 0.0
12 08:55 Calm 9.00 Fair CLR 80.6 78.8 94% 88 30.11 0.0
12 08:35 Calm 7.00 Fair CLR 78.8 78.8 100% 83 30.1 0.0
12 08:15 Calm 6.00 Fog/Mist CLR 78.8 78.8 100% 83 30.09 0.0
12 07:55 Calm 5.00 Fog/Mist CLR 77 77 100% 78 30.09 0.0
12 07:35 Calm 4.00 Fog/Mist CLR 75.2 75.2 100% 73 30.08 0.0
12 07:15 Calm 4.00 Fog/Mist CLR 73.4 73.4 100% 30.07 0.0
12 06:55 Calm 4.00 Fog/Mist CLR 71.6 71.6 100% 30.07 0.0
12 06:35 Calm 3.00 Fog/Mist CLR 71.6 71.6 100% 30.06 0.0
Date Time (cdt) Wind (mph) Vis. (mi.) Weather Sky Cond. Air Dwpt Max. Min. Relative Humidity Wind Chill (°F) Heat Index (°F) altimeter (in) sea level (mb) 1 hr 3 hr 6 hr
6 hour
Temperature (ºF) Pressure Precipitation (in)